Location: Kershaw
(34.5481°N, 80.5823°W)
Time: 10:07:32
(UTC+00:00)

Altair - Pass Details

Date: 11 October 2022
Orbit: 1501 x 1682 km, 47.2° (Epoch: 30 November)

Event Time Altitude Azimuth Distance (km) Brightness Sun altitude
Rises 09:06:23 0° 260° (W) 4,711 - -29.1°
Reaches altitude 10° 09:09:33 10° 265° (W) 3,752 - -28.5°
Exits shadow 09:15:50 40° 296° (WNW) 2,204 7.9 -27.2°
Maximum altitude 09:18:46 50° 339° (NNW) 1,965 7.9 -26.6°
Drops below altitude 10° 09:28:22 10° 54° (NE) 3,895 10.4 -24.7°
Sets 09:31:44 0° 60° (ENE) 4,902 11.3 -24.0°
